Date String (YYYY-MM-DD hh:mm:ss) UTC,Instrument flags,absolute air pressure of the measurement (hPa),sample flow rate (lpm),inlet stack bypass flow (lpm),air temperature of the measurement (°C),ambient temperature measured by the external sensor (°C),aerosol sample conditioner tube jacket temperature (°C),OPC LED temperature (°C),internal box temperature (°C),relative humidity of the measurement (%),span deviation,mass concentration of particles derived from Lorenz-Mie calculation of OPC scattering (μg/m³),mass concentration of particles derived from Lorenz-Mie calculation of OPC scattering (μg/m³),mass concentration of particles derived from Lorenz-Mie calculation of OPC scattering (μg/m³)
DateTimeUTC,F1_M11,P_M11,Q1_M11,Q2_M11,T1_M11,T2_M11,T3_M11,T4_M11,T5_M11,U1_M11,ZSPAN_M11,X0_M11,X2_M11,X1_M11
2023-05-30 22:00:00,SystemResetWarning,0827.4,4.98,000.00,029.3,027.5,000.0,037.5,031.0,12.7,0000.0,0009.04,0003.42,0002.28
2023-05-30 22:01:00,SystemResetWarning,0827.3,5.00,000.00,029.3,026.1,000.0,037.4,030.8,12.7,0000.0,0008.68,0003.43,0002.27
2023-05-30 22:02:00,SystemResetWarning,0827.3,5.02,000.00,029.3,025.9,000.0,037.4,030.8,13.3,0000.0,0008.54,0003.42,0002.26
2023-05-30 22:03:00,SystemResetWarning,0827.3,5.00,000.00,029.2,026.1,000.0,037.4,030.7,14.2,0000.0,0008.92,0003.43,0002.25
2023-05-30 22:04:00,SystemResetWarning,0827.3,5.00,000.00,029.2,026.4,000.0,037.4,030.7,14.5,0000.0,0009.82,0003.44,0002.24
2023-05-30 22:05:00,SystemResetWarning,0827.2,5.00,000.00,029.2,026.7,000.0,037.4,030.8,14.4,0000.0,0010.14,0003.45,0002.21
2023-05-30 22:06:00,SystemResetWarning,0827.2,5.00,000.00,029.2,027.0,000.0,037.5,030.8,13.1,0000.0,0010.00,0003.40,0002.20
2023-05-30 22:07:00,SystemResetWarning,0827.2,5.00,000.00,029.2,027.2,000.0,037.5,030.9,13.6,0000.0,0009.73,0003.37,0002.21
2023-05-30 22:08:00,SystemResetWarning,0827.3,5.00,000.00,029.2,027.4,000.0,037.5,030.9,14.9,0000.0,0009.58,0003.34,0002.21
2023-05-30 22:09:00,SystemResetWarning,0827.2,4.99,000.00,029.3,027.6,000.0,037.5,031.0,15.9,0000.0,0009.68,0003.35,0002.22
2023-05-30 22:10:00,SystemResetWarning,0827.2,5.00,000.00,029.3,027.8,000.0,037.5,031.0,15.6,0000.0,0009.65,0003.39,0002.23
2023-05-30 22:11:00,SystemResetWarning,0827.3,5.00,000.00,029.3,027.9,000.0,037.5,031.0,14.7,0000.0,0009.70,0003.41,0002.26
2023-05-30 22:12:00,SystemResetWarning,0827.3,4.99,000.00,029.3,028.0,000.0,037.6,031.1,15.7,0000.0,0009.73,0003.37,0002.25
2023-05-30 22:13:00,SystemResetWarning,0827.3,5.00,000.00,029.4,027.8,000.0,037.6,031.1,16.0,0000.0,0009.61,0003.37,0002.25
2023-05-30 22:14:00,SystemResetWarning,0827.3,5.00,000.00,029.3,026.4,000.0,037.5,030.9,16.7,0000.0,0009.22,0003.34,0002.26
2023-05-30 22:15:00,SystemResetWarning,0827.3,5.01,000.00,029.3,025.8,000.0,037.4,030.8,15.8,0000.0,0008.51,0003.43,0002.29
2023-05-30 22:16:00,SystemResetWarning,0827.3,5.02,000.00,029.2,026.0,000.0,037.4,030.7,16.1,0000.0,0008.61,0003.52,0002.30
2023-05-30 22:17:00,SystemResetWarning,0827.3,5.00,000.00,029.2,026.2,000.0,037.4,030.7,16.3,0000.0,0010.11,0003.62,0002.32
2023-05-30 22:18:00,SystemResetWarning,0827.3,5.00,000.00,029.2,026.5,000.0,037.5,030.8,16.3,0000.0,0010.60,0003.66,0002.32
2023-05-30 22:19:00,SystemResetWarning,0827.2,5.00,000.00,029.2,026.8,000.0,037.5,030.8,16.7,0000.0,0011.10,0003.72,0002.32
2023-05-30 22:20:00,SystemResetWarning,0827.3,5.00,000.00,029.2,027.0,000.0,037.5,030.8,16.6,0000.0,0011.33,0003.72,0002.32
2023-05-30 22:21:00,SystemResetWarning,0827.3,5.00,000.00,029.2,027.2,000.0,037.5,030.9,16.8,0000.0,0011.51,0003.72,0002.33
2023-05-30 22:22:00,SystemResetWarning,0827.3,5.00,000.00,029.2,027.4,000.0,037.5,030.9,16.8,0000.0,0012.61,0003.73,0002.32
2023-05-30 22:23:00,SystemResetWarning,0827.4,5.00,000.00,029.2,027.6,000.0,037.5,030.9,17.7,0000.0,0013.48,0003.81,0002.35
2023-05-30 22:24:00,SystemResetWarning,0827.4,5.00,000.00,029.2,027.7,000.0,037.5,031.0,18.8,0000.0,0014.09,0003.84,0002.37
2023-05-30 22:25:00,SystemResetWarning,0827.4,4.99,000.00,029.3,027.8,000.0,037.5,031.0,18.8,0000.0,0014.56,0003.91,0002.39
2023-05-30 22:26:00,SystemResetWarning,0827.4,4.99,000.00,029.3,027.9,000.0,037.6,031.0,18.6,0000.0,0015.14,0003.88,0002.40
2023-05-30 22:27:00,SystemResetWarning,0827.4,5.00,000.00,029.3,028.0,000.0,037.6,031.1,19.0,0000.0,0014.76,0003.76,0002.41
2023-05-30 22:28:00,SystemResetWarning,0827.4,5.01,000.00,029.3,028.0,000.0,037.6,031.1,18.6,0000.0,0014.64,0003.69,0002.42
2023-05-30 22:29:00,SystemResetWarning,0827.4,5.00,000.00,029.4,027.8,000.0,037.6,031.1,18.0,0000.0,0014.37,0003.69,0002.41
2023-05-30 22:30:00,SystemResetWarning,0827.3,5.01,000.00,029.3,026.2,000.0,037.5,030.8,18.3,0000.0,0014.59,0003.68,0002.42
2023-05-30 22:31:00,SystemResetWarning,0827.4,5.01,000.00,029.3,025.6,000.0,037.5,030.7,17.9,0000.0,0014.90,0003.73,0002.44
2023-05-30 22:32:00,SystemResetWarning,0827.4,5.01,000.00,029.2,025.8,000.0,037.4,030.6,17.1,0000.0,0015.73,0003.75,0002.45
2023-05-30 22:33:00,SystemResetWarning,0827.3,4.99,000.00,029.2,026.1,000.0,037.5,030.6,18.1,0000.0,0015.58,0003.77,0002.47
2023-05-30 22:34:00,SystemResetWarning,0827.4,5.00,000.00,029.2,026.4,000.0,037.5,030.7,18.7,0000.0,0015.89,0003.81,0002.46
2023-05-30 22:35:00,SystemResetWarning,0827.4,5.01,000.00,029.1,026.7,000.0,037.5,030.7,18.1,0000.0,0015.86,0003.82,0002.48
2023-05-30 22:36:00,SystemResetWarning,0827.4,5.00,000.00,029.2,026.9,000.0,037.5,030.8,17.7,0000.0,0015.98,0003.86,0002.47
2023-05-30 22:37:00,SystemResetWarning,0827.4,4.99,000.00,029.2,027.2,000.0,037.5,030.8,17.9,0000.0,0015.45,0003.90,0002.48
2023-05-30 22:38:00,SystemResetWarning,0827.4,5.00,000.00,029.2,027.3,000.0,037.5,030.9,18.3,0000.0,0016.55,0003.91,0002.48
2023-05-30 22:39:00,SystemResetWarning,0827.3,5.00,000.00,029.2,027.5,000.0,037.5,030.9,18.4,0000.0,0016.33,0003.96,0002.48
2023-05-30 22:40:00,SystemResetWarning,0827.3,5.00,000.00,029.2,027.6,000.0,037.5,030.9,18.4,0000.0,0016.14,0003.95,0002.48
2023-05-30 22:41:00,SystemResetWarning,0827.4,5.00,000.00,029.3,027.8,000.0,037.5,031.0,17.8,0000.0,0016.22,0003.98,0002.49
2023-05-30 22:42:00,SystemResetWarning,0827.4,5.00,000.00,029.3,027.8,000.0,037.5,031.0,17.9,0000.0,0016.01,0004.00,0002.48
2023-05-30 22:43:00,SystemResetWarning,0827.4,5.00,000.00,029.3,027.9,000.0,037.6,031.0,18.7,0000.0,0015.61,0004.08,0002.49
2023-05-30 22:44:00,SystemResetWarning,0827.4,4.99,000.00,029.3,028.0,000.0,037.6,031.1,20.0,0000.0,0017.42,0004.13,0002.53
2023-05-30 22:45:00,SystemResetWarning,0827.4,5.00,000.00,029.4,028.1,000.0,037.6,031.1,20.0,0000.0,0018.45,0004.15,0002.55
2023-05-30 22:46:00,SystemResetWarning,0827.4,4.97,000.00,029.4,027.2,000.0,037.6,031.0,19.4,0000.0,0018.42,0004.15,0002.56
2023-05-30 22:47:00,SystemResetWarning,0827.4,5.01,000.00,029.3,025.9,000.0,037.5,030.9,18.9,0000.0,0018.33,0004.11,0002.57
2023-05-30 22:48:00,SystemResetWarning,0827.4,5.02,000.00,029.3,025.8,000.0,037.4,030.8,17.8,0000.0,0017.95,0004.06,0002.56
2023-05-30 22:49:00,SystemResetWarning,0827.4,5.00,000.00,029.2,026.0,000.0,037.5,030.7,18.4,0000.0,0017.15,0004.08,0002.57
2023-05-30 22:50:00,SystemResetWarning,0827.4,5.00,000.00,029.2,026.3,000.0,037.5,030.7,17.7,0000.0,0016.18,0004.08,0002.57
2023-05-30 22:51:00,SystemResetWarning,0827.4,5.00,000.00,029.2,026.6,000.0,037.5,030.8,16.8,0000.0,0016.43,0004.10,0002.58
2023-05-30 22:52:00,SystemResetWarning,0827.4,5.00,000.00,029.2,026.9,000.0,037.5,030.8,16.8,0000.0,0015.93,0004.08,0002.58
2023-05-30 22:53:00,SystemResetWarning,0827.4,4.99,000.00,029.2,027.1,000.0,037.5,030.8,16.9,0000.0,0015.27,0004.01,0002.57
2023-05-30 22:54:00,SystemResetWarning,0827.4,5.00,000.00,029.2,027.3,000.0,037.5,030.9,16.8,0000.0,0014.99,0003.97,0002.54
2023-05-30 22:55:00,SystemResetWarning,0827.4,5.01,000.00,029.2,027.5,000.0,037.5,030.9,16.7,0000.0,0013.33,0003.93,0002.50
2023-05-30 22:56:00,SystemResetWarning,0827.4,5.01,000.00,029.2,027.6,000.0,037.5,030.9,16.9,0000.0,0010.80,0003.84,0002.46
2023-05-30 22:57:00,SystemResetWarning,0827.4,5.00,000.00,029.3,027.7,000.0,037.5,031.0,16.6,0000.0,0010.36,0003.78,0002.43
2023-05-30 22:58:00,SystemResetWarning,0827.4,5.00,000.00,029.3,027.8,000.0,037.6,031.0,16.9,0000.0,0011.87,0003.80,0002.41
2023-05-30 22:59:00,SystemResetWarning,0827.4,4.99,000.00,029.3,027.9,000.0,037.6,031.0,16.8,0000.0,0013.01,0003.81,0002.40
